sat.trackr.live / text

‹ back to catalog

STARLINK-37382

NORAD 68851 · 2026-094N

PAYLOAD ACTIVE UNKNOWN

§ Identity

Operator
Country
US
Launch date
2026-04-26
Launch site
AFWTR
Launch vehicle
Mass (kg)
RCS (m²)

Purposes: comms

External: N2YO · Heavens-Above · Gunter

§ Orbital elements

Epoch: 2026-05-25T04:00:03.998880Z

Period
92.95 min
Inclination
97.2851°
Eccentricity
0.0000748
Mean motion
15.49177239 rev/d
Perigee alt
418.6 km
Apogee alt
419.6 km
Semi-major
6,797.3 km
B*
-1.2392e-4
RAAN
159.8600°
Arg perigee
95.3407°
Mean anomaly
330.4246°
Rev number
567

§ Raw data

STARLINK-373821 68851U 26094N   26145.16671295 -.00006821  00000+0 -12392-3 0  99922 68851  97.2851 159.8600 0000748  95.3407 330.4246 15.49177239  5676

JSON: /api/v1/satellites/68851 · /tle

For live sub-satellite position, see the globe view (requires WebGL).

§ Visibility from observer

Set your observer location to see the next 7 days of passes ≥ 10°. The values pass through the URL so the page stays shareable.

No JS? Fill the form by hand. The geolocation button needs JavaScript.